ASTRA 1M

Last updated on Tue Sep 22 2026 00:03:11 GMT+0000 (Coordinated Universal Time)

1 33436U 08057A 26264.13650912 .00000118 00000+0 00000+0 0 9994 2 33436 0.5366 82.5615 0003746 96.5250 249.5127 1.00275491 46699
UTC large
Height (km)
Speed (km/s)
/
Latitude / Longitude
Inclination (degrees)
Orbital Period (minutes)
Azimuth
Elevation
Range (km)
Doppler Factor

Next 0 passes for location: London (51.5072 / 0.1276)

No passes found over London.
ASTRA 1M